sat.trackr.live / text

‹ back to catalog

GEOSCAN 4 (RS92S4)

NORAD 64892 · 2025-155S

PAYLOAD ACTIVE UNKNOWN

§ Identity

Operator
Country
CIS
Launch date
2025-07-25
Launch site
VOSTO
Launch vehicle
Mass (kg)
RCS (m²)

Purposes: comms

External: N2YO · Heavens-Above · Gunter

§ Orbital elements

Epoch: 2026-05-25T03:38:21.535296Z

Period
93.95 min
Inclination
97.4535°
Eccentricity
0.0003737
Mean motion
15.32686154 rev/d
Perigee alt
465.2 km
Apogee alt
470.4 km
Semi-major
6,845.9 km
B*
4.4390e-4
RAAN
114.4109°
Arg perigee
260.4752°
Mean anomaly
99.6068°
Rev number
7,729

§ Raw data

GEOSCAN 4 (RS92S4)1 64892U 25155S   26145.15163814  .00013945  00000+0  44390-3 0  99982 64892  97.4535 114.4109 0003737 260.4752  99.6068 15.32686154 77294

JSON: /api/v1/satellites/64892 · /tle

For live sub-satellite position, see the globe view (requires WebGL).

§ Visibility from observer

Set your observer location to see the next 7 days of passes ≥ 10°. The values pass through the URL so the page stays shareable.

No JS? Fill the form by hand. The geolocation button needs JavaScript.

§ Radio — SatNOGS DB

ModeDescriptionDownlinkUplink
GFSK Mode U - GFSK9k6 - AX.25 Beacon and Ham Payload (Geoscan framing) 435.335 MHz

1 transmitter · refreshed weekly from db.satnogs.org